Muncie, IN

2:21 PM EDT on June 25, 2017 (GMT -0400)
Delaware County-Johnson

Weather History for KMIE - November, 2013

Change the Weather History Date:

Tuesday, November 12, 2013

  Actual Average Record
Temperature  
Mean Temperature 27 °F 44 °F  
Max Temperature 34 °F 53 °F 72 °F (2010)
Min Temperature 20 °F 36 °F 19 °F (1996)
Degree Days  
Heating Degree Days 38 21  
Month to date heating degree days 251 221  
Since 1 July heating degree days 723 685  
Cooling Degree Days 0 0  
Month to date cooling degree days 0 0  
Year to date cooling degree days 973 955  
Moisture  
Dew Point 21 °F    
Average Humidity 71    
Maximum Humidity 85    
Minimum Humidity 56    
Precipitation  
Precipitation T in 0.12 in 1.00 in (1992)
Month to date precipitation 0.26 1.29  
Year to date precipitation 32.87 35.08  
Sea Level Pressure  
Sea Level Pressure 30.56 in    
Wind  
Wind Speed 9 mph (NNW)    
Max Wind Speed 16 mph    
Max Gust Speed 30 mph    
Visibility 9 miles    
Events Snow    
T = Trace of Precipitation, MM = Missing Value Source: NWS Daily Summary

Daily Weather History Graph

Daily Weather History Graph

Search for Another Location

Airport or City:

Trip Planner

Search our weather history database for the weather conditions in past years. The results will help you decide how hot, cold, wet, or windy it might be!

Date:

Astronomy

Nov. 12, 2013 Rise Set
Actual Time 7:24 AM EST 5:27 PM EST
Civil Twilight 6:55 AM EST 5:55 PM EST
Nautical Twilight 6:22 AM EST 6:28 PM EST
Astronomical Twilight 5:50 AM EST 7:00 PM EST
Moon 2:41 PM EST (11/12) 2:12 AM EST (11/12)
Length of Visible Light 11h 00m
Length of Day
10h 02m
Waxing Gibbous, 76% of the Moon is Illuminated
Nov 12
Waxing Gibbous
Nov 17
Full
Nov 25
Last Quarter
Dec 2
New
Dec 9
First Quarter

Hourly Weather History & Observations

Time (EST) Temp. Windchill Dew Point Humidity Pressure Visibility Wind Dir Wind Speed Gust Speed Precip Events Conditions
12:53 AM 28.9 °F 17.7 °F 21.0 °F 72% 30.37 in 10.0 mi North 15.0 mph - N/A   Overcast
1:53 AM 28.9 °F 17.7 °F 19.9 °F 69% 30.38 in 10.0 mi North 15.0 mph 24.2 mph N/A   Clear
2:53 AM 27.0 °F 18.0 °F 19.0 °F 72% 30.40 in 10.0 mi North 9.2 mph - N/A   Clear
3:53 AM 25.0 °F 16.3 °F 18.0 °F 75% 30.43 in 10.0 mi North 8.1 mph - N/A   Clear
4:53 AM 24.1 °F 15.2 °F 17.1 °F 75% 30.45 in 10.0 mi North 8.1 mph - N/A   Clear
5:53 AM 23.0 °F 13.9 °F 17.1 °F 78% 30.48 in 10.0 mi North 8.1 mph - N/A   Clear
6:53 AM 21.9 °F 12.5 °F 17.1 °F 82% 30.51 in 10.0 mi North 8.1 mph - N/A   Clear
7:53 AM 19.9 °F 12.1 °F 16.0 °F 85% 30.55 in 10.0 mi NNW 5.8 mph - N/A   Clear
8:53 AM 25.0 °F 18.1 °F 19.0 °F 78% 30.57 in 10.0 mi NNW 5.8 mph - N/A   Clear
9:53 AM 28.0 °F 18.6 °F 19.9 °F 72% 30.59 in 10.0 mi NNW 10.4 mph - N/A   Clear
10:53 AM 30.0 °F 19.5 °F 19.0 °F 64% 30.61 in 10.0 mi North 13.8 mph - N/A   Clear
11:53 AM 32.0 °F 24.2 °F 21.0 °F 64% 30.61 in 10.0 mi North 9.2 mph - N/A   Partly Cloudy
12:53 PM 32.0 °F 24.2 °F 19.9 °F 61% 30.59 in 10.0 mi North 9.2 mph - N/A   Partly Cloudy
1:53 PM 34.0 °F 26.0 °F 21.0 °F 59% 30.59 in 10.0 mi North 10.4 mph - N/A   Scattered Clouds
2:53 PM 33.1 °F 23.4 °F 19.9 °F 59% 30.59 in 10.0 mi NNW 13.8 mph - N/A   Overcast
3:53 PM 32.0 °F 23.6 °F 24.1 °F 73% 30.61 in 2.0 mi NW 10.4 mph - 0.00 in Snow Light Snow
4:00 PM 32.0 °F 24.2 °F 24.8 °F 75% 30.58 in 3.0 mi NW 9.2 mph - 0.00 in Snow Light Snow
4:15 PM 32.0 °F 22.5 °F 24.8 °F 75% 30.58 in 3.0 mi NW 12.7 mph - 0.00 in   Haze
4:53 PM 32.0 °F 22.1 °F 24.1 °F 73% 30.61 in 3.0 mi WNW 13.8 mph - 0.00 in   Haze
5:53 PM 30.0 °F 22.4 °F 25.0 °F 82% 30.61 in 10.0 mi WNW 8.1 mph - N/A   Scattered Clouds
6:53 PM 30.0 °F 20.5 °F 24.1 °F 79% 30.61 in 10.0 mi NW 11.5 mph - N/A   Mostly Cloudy
7:53 PM 28.9 °F 21.9 °F 24.1 °F 82% 30.62 in 10.0 mi NW 6.9 mph - N/A   Mostly Cloudy
8:53 PM 27.0 °F 19.5 °F 23.0 °F 85% 30.63 in 10.0 mi NW 6.9 mph - N/A   Clear
9:53 PM 26.1 °F 21.9 °F 21.0 °F 81% 30.64 in 10.0 mi WNW 3.5 mph - N/A   Clear
10:53 PM 25.0 °F 19.3 °F 19.9 °F 81% 30.63 in 10.0 mi West 4.6 mph - N/A   Clear
11:53 PM 24.1 °F 18.2 °F 19.0 °F 81% 30.61 in 10.0 mi West 4.6 mph - N/A   Clear